Weather History for Bentonville, AR

Change the Weather History Date:

Wednesday, October 10, 2012

  Actual Average Record
Temperature  
Mean Temperature - -  
Max Temperature - 71 °F 91 °F (1963)
Min Temperature - 45 °F 25 °F (1979)
Moisture  
Dew Point -    
Average Humidity    
Maximum Humidity    
Minimum Humidity    
Precipitation  
Precipitation 0.00 in - - ()
Sea Level Pressure  
Sea Level Pressure 30.18 in    
Wind  
Wind Speed 6 mph (ENE)    
Max Wind Speed 13 mph    
Max Gust Speed 17 mph    
Visibility 10 miles    
Events      
Averages and records for this station are not official NWS values.
T = Trace of Precipitation, MM = Missing Value Source: NWS Daily Summary

Daily Weather History Graph

Daily Weather History Graph

Search for Another Location

Airport:

Trip Planner

Search our weather history database for the weather conditions in past years. The results will help you decide how hot, cold, wet, or windy it might be!

Date:

Astronomy

Oct. 10, 2012 Rise Set
Actual Time 7:20 AM CDT 6:46 PM CDT
Civil Twilight 6:54 AM CDT 7:12 PM CDT
Nautical Twilight 6:24 AM CDT 7:42 PM CDT
Astronomical Twilight 5:54 AM CDT 8:12 PM CDT
Moon 2:05 AM CDT (10/10) 3:42 PM CDT (10/10)
Length of Visible Light 12h 18m
Length of Day
11h 26m
Waning Crescent, 27% of the Moon is Illuminated
Oct 10
Waning Crescent
Oct 15
New
Oct 21
First Quarter
Oct 29
Full
Nov 6
Last Quarter

Hourly Weather History & Observations

Time (CDT) Temp. Dew Point Humidity Pressure Visibility Wind Dir Wind Speed Gust Speed Precip Events Conditions
12:35 AM - - N/A% 30.07 in 8.0 mi Calm Calm - N/A   Overcast
12:55 AM - - N/A% 30.09 in 8.0 mi North 5.8 mph - N/A   Overcast
1:15 AM - - N/A% 30.08 in 10.0 mi North 6.9 mph - N/A   Overcast
1:36 AM - - N/A% 30.10 in 10.0 mi North 6.9 mph - N/A   Mostly Cloudy
1:55 AM - - N/A% 30.10 in 10.0 mi North 10.4 mph - N/A   Mostly Cloudy
2:15 AM - - N/A% 30.11 in 10.0 mi North 9.2 mph - N/A   Scattered Clouds
2:35 AM - - N/A% 30.12 in 10.0 mi NNE 12.7 mph 17.3 mph N/A   Clear
2:55 AM - - N/A% 30.14 in 10.0 mi North 9.2 mph - N/A   Clear
3:15 AM - - N/A% 30.14 in 10.0 mi NNE 11.5 mph 16.1 mph N/A   Clear
3:35 AM - - N/A% 30.14 in 10.0 mi NNE 8.1 mph - N/A   Clear
3:55 AM - - N/A% 30.14 in 10.0 mi NNE 10.4 mph - N/A   Clear
4:15 AM - - N/A% 30.15 in 10.0 mi NE 9.2 mph - N/A   Clear
4:35 AM - - N/A% 30.16 in 10.0 mi NNE 6.9 mph - N/A   Clear
4:55 AM - - N/A% 30.16 in 10.0 mi NE 9.2 mph - N/A   Clear
5:15 AM - - N/A% 30.16 in 10.0 mi NE 6.9 mph - N/A   Clear
5:35 AM - - N/A% 30.17 in 10.0 mi NE 6.9 mph - N/A   Clear
5:55 AM - - N/A% 30.18 in 10.0 mi NE 3.5 mph - N/A   Clear
6:15 AM - - N/A% 30.20 in 10.0 mi Calm Calm - N/A   Clear
6:35 AM - - N/A% 30.20 in 10.0 mi Calm Calm - N/A   Clear
7:35 AM - - N/A% 30.22 in 10.0 mi Calm Calm - N/A   Clear
7:55 AM - - N/A% 30.23 in 2.5 mi Calm Calm - N/A   Clear
8:36 AM - - N/A% 30.25 in 10.0 mi East 4.6 mph - N/A   Clear
8:55 AM - - N/A% 30.26 in 10.0 mi East 5.8 mph - N/A   Clear
9:15 AM - - N/A% 30.26 in 10.0 mi East 4.6 mph - N/A   Clear
9:36 AM - - N/A% 30.26 in 10.0 mi East 6.9 mph - N/A   Clear
9:55 AM - - N/A% 30.26 in 10.0 mi East 11.5 mph - N/A   Clear
10:15 AM - - N/A% 30.27 in 10.0 mi East 10.4 mph - N/A   Clear
10:55 AM - - N/A% 30.28 in 10.0 mi ENE 9.2 mph - N/A   Clear
11:15 AM - - N/A% 30.28 in 10.0 mi NNE 9.2 mph - N/A   Clear
11:35 AM - - N/A% 30.28 in 10.0 mi NE 11.5 mph - N/A   Clear
11:55 AM - - N/A% 30.27 in 10.0 mi NE 6.9 mph - N/A   Clear
12:15 PM - - N/A% - - North - - N/A   Unknown
12:36 PM - - N/A% 30.26 in 10.0 mi NNE 10.4 mph - N/A   Clear
12:55 PM - - N/A% 30.25 in 10.0 mi NE 8.1 mph - N/A   Clear
1:15 PM - - N/A% 30.25 in 10.0 mi NE 12.7 mph - N/A   Clear
1:55 PM - - N/A% 30.23 in 10.0 mi NE 6.9 mph - N/A   Clear
2:15 PM - - N/A% 30.22 in 10.0 mi NE 6.9 mph - N/A   Clear
2:35 PM - - N/A% 30.21 in 10.0 mi NE 8.1 mph - N/A   Clear
3:15 PM - - N/A% 30.20 in 10.0 mi ENE 4.6 mph - N/A   Clear
3:35 PM - - N/A% 30.19 in 10.0 mi NE 6.9 mph - N/A   Clear
4:15 PM - - N/A% 30.18 in 10.0 mi NE 5.8 mph - N/A   Mostly Cloudy
4:35 PM - - N/A% 30.18 in 10.0 mi East 6.9 mph - N/A   Scattered Clouds
4:55 PM - - N/A% 30.17 in 10.0 mi East 6.9 mph - N/A   Clear
5:15 PM - - N/A% 30.17 in 10.0 mi ESE 6.9 mph - N/A   Clear
5:35 PM - - N/A% 30.17 in 10.0 mi ESE 5.8 mph - N/A   Scattered Clouds
5:55 PM - - N/A% 30.16 in 10.0 mi ESE 5.8 mph - N/A   Overcast
6:35 PM - - N/A% 30.16 in 10.0 mi East 5.8 mph - N/A   Overcast
6:55 PM - - N/A% 30.16 in 10.0 mi East 4.6 mph - N/A   Overcast
7:15 PM - - N/A% 30.16 in 10.0 mi East 4.6 mph - N/A   Overcast
7:36 PM - - N/A% 30.16 in 10.0 mi East 6.9 mph - N/A   Overcast
7:55 PM - - N/A% 30.16 in 10.0 mi East 6.9 mph - N/A   Overcast
8:15 PM - - N/A% 30.16 in 10.0 mi East 5.8 mph - N/A   Overcast
8:55 PM - - N/A% 30.16 in 10.0 mi ESE 9.2 mph - N/A   Overcast
9:15 PM - - N/A% 30.16 in 10.0 mi ESE 8.1 mph - N/A   Overcast
9:35 PM - - N/A% 30.16 in 10.0 mi ESE 8.1 mph - N/A   Overcast
9:55 PM - - N/A% 30.16 in 10.0 mi ESE 8.1 mph - N/A   Overcast
10:15 PM - - N/A% 30.16 in 10.0 mi ESE 5.8 mph - N/A   Overcast
10:35 PM - - N/A% 30.16 in 10.0 mi SE 6.9 mph - N/A   Overcast
10:56 PM - - N/A% 30.16 in 10.0 mi SE 8.1 mph - N/A   Overcast
11:15 PM - - N/A% 30.16 in 10.0 mi SE 6.9 mph - N/A   Overcast
11:35 PM - - N/A% 30.16 in 10.0 mi SE 6.9 mph - N/A   Overcast